User: anonymous   Login
Location: Centerville
(32.8776°N, 96.6203°W)
Time: 22:35:02
(UTC+00:00)
Language:

Cosmos 2237 - Orbit

View from above orbital plane
View from above orbital plane
View from above satellite
View from above satellite

Ground track
Ground track

The orbit data is extracted from the following two-line orbital elements,

1 22565U 93016A   21262.59538676 -.00000175  00000-0 -68136-4 0  9994
2 22565  70.8465   9.0415 0007774 297.2817  62.7511 14.12493647468845
Epoch (UTC): 19 September 2021 14:17:21
Eccentricity: 0.0007774
inclination: 70.8465°
perigee height: 845 km
apogee height: 856 km
right ascension of ascending node: 9.0415°
argument of perigee: 297.2817°
revolutions per day: 14.12493647
mean anomaly at epoch: 62.7511°
orbit number at epoch: 46884

The dashed part of the orbit path shows where the satellite is in the earth's shadow,  

DLR